Flight Track Log - Related Links

Times and Time Zones

All times are in EDT time to prevent confusion due to time zone crossing. See the RPA3143 flight status page for this flight to view local times or setup timezone preferences in your user account.

Time Position Orientation Groundspeed Altitude Reporting Facility
EDT Latitude Longitude Course Direction KTS MPH feet Rate Location/Type
Sat 05:46:42 AM 42.7672 -73.8061 118° Southeast 157 181 1,200  Level Boston Center
Sat 05:48:04 AM 42.8486 -73.8108 358° North 256 295 3,800 2,535 Climbing Boston Center
Sat 05:49:00 AM 42.4273 -74.0872 180° South  Level Estimated
Sat 05:49:04 AM 42.9150 -73.8236 352° North 288 331 7,200  Level Boston Center
Sat 05:50:00 AM 42.3467 -74.1581 170° South  Level Estimated
Sat 05:50:04 AM 42.9244 -73.9031 279° West 210 242 9,400  Level Boston Center
Sat 05:51:00 AM 42.2661 -74.2287 169° South  Level Estimated
Sat 05:51:04 AM 42.9147 -74.0136 263° West 249 287 12,300  Level Boston Center
Sat 05:52:00 AM 42.2205 -74.1145 118° Southeast  Level FlightAware Approximate
Sat 05:52:04 AM 42.8436 -74.0400 195° South 245 282 15,000  Level Boston Center
Sat 05:53:04 AM 42.7586 -74.0039 163° South 252 290 17,100 1,900 Climbing Boston Center
Sat 05:54:04 AM 42.6861 -73.9739 163° South 297 342 18,800 1,850 Climbing Boston Center
Sat 05:55:04 AM 42.5742 -73.9258 162° South 330 380 20,800 1,800 Climbing Boston Center
Sat 05:56:04 AM 42.4744 -73.8869 164° South 357 411 22,400 1,600 Climbing Boston Center
Sat 05:57:04 AM 42.3750 -73.8481 164° South 367 422 24,000 1,500 Climbing Boston Center
Sat 05:58:04 AM 42.2756 -73.8067 163° South 372 428 25,400 1,450 Climbing Boston Center
Sat 05:59:04 AM 42.1717 -73.7678 164° South 383 441 26,900 1,250 Climbing Boston Center
Sat 06:00:04 AM 42.0672 -73.7908 189° South 370 426 27,900 550 Climbing Boston Center
Sat 06:01:04 AM 41.9667 -73.8389 200° South 370 426 28,000 50 Climbing Boston Center
Sat 06:02:04 AM 41.8658 -73.8925 202° Southwest 382 440 28,000  Level Boston Center
Sat 06:03:04 AM 41.7800 -73.9322 199° South 387 445 28,000  Level Boston Center
Sat 06:05:19 AM 41.5453 -74.0419 199° South 399 459 28,000  Level New York Center
Sat 06:06:19 AM 41.4439 -74.0922 200° South 385 443 28,000  Level New York Center
Sat 06:07:20 AM 41.3447 -74.1397 200° South 385 443 28,000  Level New York Center
Sat 06:08:20 AM 41.2433 -74.1897 200° South 390 449 28,000  Level New York Center
Sat 06:09:18 AM 41.1483 -74.2292 197° South 396 456 28,000  Level New York Center
Sat 06:10:18 AM 41.0469 -74.2789 200° South 390 449 28,000  Level New York Center
Sat 06:11:18 AM 40.9456 -74.3231 198° South 390 449 28,000  Level New York Center
Sat 06:12:20 AM 40.8419 -74.3753 201° Southwest 390 449 28,000  Level New York Center
Sat 06:13:18 AM 40.7564 -74.4531 215° Southwest 390 449 28,000  Level New York Center
Sat 06:14:19 AM 40.6903 -74.5672 233° Southwest 375 432 28,000 -443 Level New York Center
Sat 06:15:20 AM 40.6361 -74.6872 239° Southwest 384 442 27,100 -1,220 Descending New York Center
Sat 06:16:17 AM 40.5944 -74.8133 247° West 384 442 25,600 -1,513 Descending New York Center
Sat 06:17:19 AM 40.5244 -74.9100 226° Southwest 379 436 24,100 -1,289 Descending New York Center
Sat 06:18:18 AM 40.4664 -75.0158 234° Southwest 369 425 23,000 -1,160 Descending New York Center
Sat 06:19:18 AM 40.4083 -75.1239 235° Southwest 364 419 21,800 -1,180 Descending New York Center
Sat 06:20:20 AM 40.3406 -75.2094 224° Southwest 358 412 20,600 -893 Descending New York Center
Sat 06:21:19 AM 40.2708 -75.2894 221° Southwest 347 399 20,000 -305 Descending New York Center
Sat 06:22:18 AM 40.1992 -75.3636 218° Southwest 337 388 20,000  Level New York Center
Sat 06:23:18 AM 40.1228 -75.4508 221° Southwest 337 388 20,000  Level New York Center
Sat 06:24:20 AM 40.0508 -75.5272 219° Southwest 342 394 20,000  Level New York Center
Sat 06:25:18 AM 39.9833 -75.6039 221° Southwest 342 394 20,000  Level New York Center
Sat 06:26:20 AM 39.9150 -75.6886 224° Southwest 342 394 20,000  Level New York Center
Sat 06:27:18 AM 39.8631 -75.7850 235° Southwest 337 388 20,000 -38 Level New York Center
Sat 06:28:56 AM 39.7667 -75.9500 233° Southwest 329 379 19,900 -659 Descending Potomac TRACON
Sat 06:30:02 AM 39.7000 -76.0333 224° Southwest 322 371 18,200 -1,526 Descending Potomac TRACON
Sat 06:30:50 AM 39.6500 -76.1167 232° Southwest 312 359 17,000 -1,361 Descending Potomac TRACON
Sat 06:31:39 AM 39.6167 -76.1667 229° Southwest 304 350 16,000 -1,321 Descending Potomac TRACON
Sat 06:32:39 AM 39.5667 -76.2667 237° Southwest 299 344 14,600 -1,350 Descending Potomac TRACON
Sat 06:33:39 AM 39.5000 -76.3333 218° Southwest 294 338 13,300 -1,250 Descending Potomac TRACON
Sat 06:34:39 AM 39.4500 -76.4167 232° Southwest 290 334 12,100 -595 Descending Potomac TRACON
Sat 06:35:40 AM 39.3833 -76.4833 218° Southwest 291 335 12,100  Level Potomac TRACON
Sat 06:36:40 AM 39.3167 -76.5333 210° Southwest 294 338 12,100 -316 Level Potomac TRACON
Sat 06:37:34 AM 39.2500 -76.5833 210° Southwest 293 337 11,500 -944 Descending Potomac TRACON
Sat 06:38:28 AM 39.2000 -76.6333 218° Southwest 289 333 10,400 -789 Descending Potomac TRACON
Sat 06:39:28 AM 39.1333 -76.7000 218° Southwest 272 313 10,000 -250 Descending Potomac TRACON
Sat 06:40:28 AM 39.0833 -76.7667 226° Southwest 270 311 9,900 -550 Descending Potomac TRACON
Sat 06:41:28 AM 39.0333 -76.8333 226° Southwest 260 299 8,900 -1,200 Descending Potomac TRACON
Sat 06:42:28 AM 39.0167 -76.9167 256° West 231 266 7,500 -2,000 Descending Potomac TRACON
Sat 06:43:28 AM 39.0000 -76.9833 252° West 224 258 4,900 -2,316 Descending Potomac TRACON
Sat 06:44:22 AM 38.9833 -77.0500 252° West 212 244 3,100 -2,000 Descending Potomac TRACON

Login

Don't have an account? Register now (free) for customized features, flight alerts, and more!